Regional Weather Roundup
Issued by NWS

Home | Current Version | Previous Version | Graphics & Text | Print | Product List | Glossary Off
Versions: 1 2 3 4 5 6 7 8 9 10 11 12 13 14 15 16 17 18 19 20 21 22 23 24 25 26 27 28 29 30 31 32 33 34 35 36 37 38 39 40 41 42 43 44 45 46 47 48 49 50

000
ASUS43 KTOP 211508
RWRKS

WEATHER ROUNDUP FOR KANSAS
NATIONAL WEATHER SERVICE GOODLAND KS
1000 AM CDT MON AUG 21 2017

NOTE:  "FAIR" INDICATES FEW OR NO CLOUDS BELOW 12,000 FEET WITH NO
SIGNIFICANT WEATHER AND/OR OBSTRUCTIONS TO VISIBILITY.

KSZ001>006-013>018-027>032-041>047-211600-
NORTHWEST KANSAS

CITY           SKY/WX    TMP DP  RH WIND       PRES   REMARKS
GOODLAND       SUNNY     73  61  65 S9        30.01S
HAYS           CLOUDY    78  66  66 S15       30.01S
HILL CITY      CLOUDY    79  66  64 S13G22    30.00S
RUSSELL        CLOUDY    78  64  61 S13       30.00S
$$

KSZ061>065-074>080-084>089-211600-
SOUTHWEST KANSAS

CITY           SKY/WX    TMP DP  RH WIND       PRES   REMARKS
DODGE CITY     CLOUDY    74  66  76 S16       30.06R
ELKHART          N/A     74  65  74 S12         N/A
GARDEN CITY    PTSUNNY   73  63  70 S16       30.05S
GREAT BEND     LGT RAIN  72  67  84 S14       30.03R
LIBERAL        CLOUDY    75  64  68 S15       30.08S
PRATT          CLOUDY    75  68  78 S14       30.05S
$$

KSZ066>073-081>083-090>101-211600-
SOUTHEAST KANSAS

CITY           SKY/WX    TMP DP  RH WIND       PRES   REMARKS
CHANUTE        PTSUNNY   83  75  77 S13       30.08F
COFFEYVILLE    SUNNY     83  75  77 SW8       30.07F
HUTCHINSON     PTSUNNY   74  71  91 SE7       30.04S
MEDICINE LODGE   N/A     76  71  85 S9        30.04F
NEWTON         CLOUDY    77  72  84 SE8       30.05F
PARSONS        MOSUNNY   83  74  74 S8        30.09F
WICHITA INTL   PTSUNNY   84  73  69 S14       30.03F
WICHITA JABRA  PTSUNNY   82  74  76 SE9       30.04F
WICHITA MCCONL CLOUDY    83  71  68 S14       30.05S
WINFIELD       SUNNY     83  74  74 S12       30.07F
$$

KSZ007>012-019>026-033>040-048>060-102>105-211600-
NORTHEAST KANSAS

CITY           SKY/WX    TMP DP  RH WIND       PRES   REMARKS
CONCORDIA      MOSUNNY   80  66  62 S10       29.99S
EMPORIA        PTSUNNY   82  72  71 S9        30.04F
LAWRENCE       CLOUDY    83  76  79 S6        30.05S
MANHATTAN      CLOUDY    78  69  73 S3        30.01F
MARYSVILLE     CLOUDY    81  68  65 S3        30.02S
OLATHE IND     CLOUDY    78  68  71 SE12      30.08S
OLATHE EXE     CLOUDY    72  66  81 S21G33    30.07F THUNDER
SALINA         CLOUDY    81  66  60 S15       30.00R
TOPEKA BILLARD CLOUDY    84  75  74 S9        30.03F
TOPEKA FORBES  CLOUDY    83  75  77 SW9       30.04F
$$




USA.gov is the U.S. government's official web portal to all federal, state and local government web resources and services.